Weather History for Springfield, CO

Change the Weather History Date:

Tuesday, January 15, 2013

  Actual Average Record
Temperature  
Mean Temperature 18 °F -  
Max Temperature 31 °F 46 °F 75 °F (1999)
Min Temperature 5 °F 18 °F -2 °F (2007)
Degree Days  
Heating Degree Days 47 33  
Month to date heating degree days 586 500  
Since 1 July heating degree days 2520 2658  
Cooling Degree Days 0 0  
Month to date cooling degree days 0 0  
Year to date cooling degree days 0 0  
Moisture  
Dew Point 6 °F    
Average Humidity 60    
Maximum Humidity 92    
Minimum Humidity 27    
Precipitation  
Precipitation 0.00 in 0.01 in 0.00 in (2014)
Month to date precipitation 0.02 0.12  
Year to date precipitation 0.02 0.12  
Sea Level Pressure  
Sea Level Pressure 30.21 in    
Wind  
Wind Speed 10 mph (NW)    
Max Wind Speed 18 mph    
Max Gust Speed 23 mph    
T = Trace of Precipitation, MM = Missing Value Source: NWS Daily Summary

Daily Weather History Graph

Daily Weather History Graph

Search for Another Location

Airport:

Trip Planner

Search our weather history database for the weather conditions in past years. The results will help you decide how hot, cold, wet, or windy it might be!

Date:

Astronomy

Jan. 15, 2013 Rise Set
Actual Time 7:03 AM MST 4:57 PM MST
Civil Twilight 6:34 AM MST 5:25 PM MST
Nautical Twilight 6:02 AM MST 5:57 PM MST
Astronomical Twilight 5:31 AM MST 6:28 PM MST
Moon 9:16 AM MST (1/15) 9:41 PM MST (1/15)
Length of Visible Light 10h 50m
Length of Day
9h 53m
Waxing Crescent, 20% of the Moon is Illuminated
Jan 15
Waxing Crescent
Jan 18
First Quarter
Jan 26
Full
Feb 3
Last Quarter
Feb 10
New

Hourly Weather History & Observations

Time (MST) Temp. Windchill Dew Point Humidity Pressure Visibility Wind Dir Wind Speed Gust Speed Precip Events Conditions
12:56 AM 10.9 °F 1.4 °F 8.1 °F 88% 30.18 in - WSW 5.8 mph - N/A   Unknown
1:56 AM 8.1 °F -2.0 °F 3.9 °F 83% 30.20 in - West 5.8 mph - N/A   Unknown
2:56 AM 6.1 °F -4.3 °F 1.0 °F 80% 30.22 in - West 5.8 mph - N/A   Unknown
3:56 AM 7.0 °F -3.3 °F 1.9 °F 80% 30.22 in - WNW 5.8 mph - N/A   Unknown
4:56 AM 7.0 °F -6.6 °F 1.9 °F 80% 30.22 in - NW 9.2 mph - N/A   Unknown
5:56 AM 8.1 °F -6.2 °F 3.0 °F 80% 30.22 in - NW 10.4 mph - N/A   Unknown
6:56 AM 8.1 °F -6.2 °F 3.0 °F 80% 30.22 in - NNW 10.4 mph - N/A   Unknown
7:56 AM 10.9 °F -5.9 °F 7.0 °F 84% 30.23 in - NNW 16.1 mph - N/A   Unknown
8:56 AM 16.0 °F 1.7 °F 10.9 °F 81% 30.24 in - NNW 13.8 mph - N/A   Unknown
9:56 AM 19.0 °F 4.0 °F 12.0 °F 74% 30.24 in - NNW 17.3 mph 20.7 mph N/A   Unknown
10:56 AM 21.9 °F 7.8 °F 12.9 °F 68% 30.22 in - NNW 17.3 mph - N/A   Unknown
11:56 AM 26.1 °F 14.5 °F 12.9 °F 58% 30.19 in - NNW 13.8 mph - N/A   Unknown
12:56 PM 28.9 °F 19.2 °F 12.0 °F 49% 30.17 in - North 11.5 mph - N/A   Unknown
1:56 PM 30.9 °F 20.2 °F 5.0 °F 33% 30.17 in - North 15.0 mph - N/A   Unknown
2:56 PM 30.9 °F 22.8 °F 1.9 °F 29% 30.19 in - North 9.2 mph - N/A   Unknown
3:56 PM 30.0 °F 21.7 °F -0.0 °F 28% 30.20 in - North 9.2 mph - N/A   Unknown
4:56 PM 28.0 °F 20.0 °F 1.0 °F 31% 30.22 in - North 8.1 mph - N/A   Unknown
5:56 PM 21.9 °F 17.2 °F 3.0 °F 44% 30.23 in - WNW 3.5 mph - N/A   Unknown
6:56 PM 17.1 °F 11.7 °F 6.1 °F 62% 30.26 in - WNW 3.5 mph - N/A   Unknown
7:56 PM 21.9 °F 11.7 °F 7.0 °F 53% 30.23 in - NW 9.2 mph - N/A   Unknown
8:56 PM 19.9 °F 10.1 °F 7.0 °F 57% 30.22 in - WNW 8.1 mph - N/A   Unknown
9:56 PM 19.0 °F 6.8 °F 6.1 °F 57% 30.20 in - WNW 11.5 mph - N/A   Unknown
10:56 PM 19.9 °F 11.1 °F 6.1 °F 55% 30.19 in - WNW 6.9 mph - N/A   Unknown
11:56 PM 23.0 °F 11.7 °F 8.1 °F 53% 30.16 in - NW 11.5 mph - N/A   Unknown